, LA

(GMT )
Boothville

Weather History for KBVE - July, 2013

Change the Weather History Date:

Thursday, July 11, 2013

  Actual Average Record
Temperature  
Mean Temperature 78 °F -  
Max Temperature 82 °F - - ()
Min Temperature 75 °F - - ()
Cooling Degree Days 14    
Growing Degree Days 28 (Base 50)    
Moisture  
Dew Point 75 °F    
Average Humidity 84    
Maximum Humidity 97    
Minimum Humidity 71    
Precipitation  
Precipitation 0.73 in - - ()
Sea Level Pressure  
Sea Level Pressure 29.98 in    
Wind  
Wind Speed 7 mph (West)    
Max Wind Speed 15 mph    
Max Gust Speed 22 mph    
Visibility 10 miles    
Events Rain    
T = Trace of Precipitation, MM = Missing Value Source: NWS Daily Summary

Daily Weather History Graph

Daily Weather History Graph

Search for Another Location

Airport or City:

Trip Planner

Search our weather history database for the weather conditions in past years. The results will help you decide how hot, cold, wet, or windy it might be!

Date:

Astronomy

Jul. 11, 2013 Rise Set
Actual Time 6:06 AM CDT 7:59 PM CDT
Civil Twilight 5:39 AM CDT 8:26 PM CDT
Nautical Twilight 5:07 AM CDT 8:58 PM CDT
Astronomical Twilight 4:32 AM CDT 9:33 PM CDT
Moon 9:06 AM CDT (7/11) 10:01 PM CDT (7/11)
Length of Visible Light 14h 47m
Length of Day
13h 53m
Waxing Crescent, 11% of the Moon is Illuminated
Jul 11
Waxing Crescent
Jul 15
First Quarter
Jul 22
Full
Jul 29
Last Quarter
Aug 6
New

Hourly Weather History & Observations

Time (CDT) Temp. Heat Index Dew Point Humidity Pressure Visibility Wind Dir Wind Speed Gust Speed Precip Events Conditions
12:51 AM 82.0 °F 86.7 °F 72.0 °F 71% 30.01 in 10.0 mi SW 5.8 mph - N/A   Unknown
1:51 AM 82.9 °F 89.4 °F 73.9 °F 74% 30.01 in 10.0 mi WSW 8.1 mph - N/A   Unknown
2:51 AM 82.9 °F 90.2 °F 75.0 °F 77% 30.01 in 10.0 mi WSW 8.1 mph - N/A   Unknown
3:51 AM 82.9 °F 90.2 °F 75.0 °F 77% 30.01 in 10.0 mi WSW 8.1 mph - N/A   Unknown
4:51 AM 81.0 °F 86.7 °F 75.0 °F 82% 29.98 in 10.0 mi WSW 10.4 mph - 0.02 in   Unknown
5:51 AM 75.9 °F - 75.0 °F 97% 30.01 in 10.0 mi WNW 10.4 mph 20.7 mph 0.26 in Rain Heavy Rain
6:51 AM 75.0 °F - 71.1 °F 87% 30.00 in 10.0 mi West 6.9 mph - 0.32 in Rain Light Rain
7:51 AM 78.1 °F - 73.9 °F 87% 30.02 in 10.0 mi West 8.1 mph - 0.00 in   Unknown
8:51 AM 78.1 °F - 73.9 °F 87% 30.02 in 10.0 mi West 15.0 mph 21.9 mph N/A   Unknown
9:51 AM 79.0 °F - 75.0 °F 88% 30.02 in 10.0 mi West 10.4 mph - 0.10 in Rain Light Rain
10:51 AM 79.0 °F - 75.9 °F 90% 30.02 in 10.0 mi Calm Calm - 0.02 in Rain Light Rain
11:51 AM 80.1 °F 85.8 °F 77.0 °F 90% 30.03 in 10.0 mi Calm Calm - 0.01 in   Scattered Clouds
12:51 PM 82.0 °F 90.2 °F 77.0 °F 85% 30.00 in 10.0 mi Calm Calm - N/A   Clear
1:02 PM 82.4 °F 90.9 °F 77.0 °F 84% 29.99 in 10.0 mi West 3.5 mph - N/A   Partly Cloudy
1:47 PM 82.4 °F 89.5 °F 75.2 °F 79% 29.99 in 10.0 mi West 6.9 mph - N/A   Mostly Cloudy
1:51 PM 82.9 °F 90.8 °F 75.9 °F 79% 29.99 in 10.0 mi West 9.2 mph - N/A   Mostly Cloudy
2:11 PM 82.4 °F 89.5 °F 75.2 °F 79% 29.99 in 10.0 mi West 6.9 mph - N/A   Scattered Clouds
2:51 PM 82.9 °F 90.2 °F 75.0 °F 77% 29.98 in 10.0 mi West 5.8 mph - N/A   Scattered Clouds
3:51 PM 82.9 °F 90.8 °F 75.9 °F 79% 29.96 in 10.0 mi West 5.8 mph - N/A   Clear
4:51 PM 78.1 °F - 73.0 °F 84% 29.95 in 10.0 mi NNE 8.1 mph - 0.00 in Rain Light Rain
5:51 PM 78.1 °F - 73.0 °F 84% 29.94 in 10.0 mi Calm Calm - 0.00 in   Scattered Clouds
6:51 PM 79.0 °F - 73.0 °F 82% 29.89 in 10.0 mi SW 9.2 mph - N/A   Clear
7:51 PM 79.0 °F - 75.0 °F 88% 29.90 in 10.0 mi WSW 6.9 mph - N/A   Partly Cloudy
8:51 PM 78.1 °F - 75.0 °F 90% 29.93 in 10.0 mi NW 3.5 mph - N/A   Clear
9:51 PM 77.0 °F - 73.9 °F 90% 29.94 in 10.0 mi Calm Calm - N/A   Clear
10:51 PM 78.1 °F - 73.9 °F 87% 29.96 in 10.0 mi NNW 4.6 mph - N/A   Clear
11:51 PM 77.0 °F - 73.9 °F 90% 29.94 in 10.0 mi Calm Calm - N/A   Clear